Location: Easthampton
(42.2676°N, 72.6690°W)
Time: 08:50:46
(UTC+00:00)

Gurwin Techsat 1B - Pass Details

Date: 07 April 2023
Orbit: 811 x 813 km, 98.9° (Epoch: 02 June)

Event Time Altitude Azimuth Distance (km) Brightness Sun altitude
Rises 06:28:10 0° 32° (NNE) 3,346 12.8 -36.4°
Reaches altitude 10° 06:31:28 10° 53° (NE) 2,409 11.7 -36.1°
Maximum altitude 06:34:43 16° 91° (E) 1,998 10.9 -35.8°
Enters shadow 06:34:53 16° 93° (E) 1,999 10.9 -35.8°
